User: anonymous   Login
Location: Stoke Bliss
(52.2667°N, 2.5167°W)
Time: 17:56:24
(UTC+00:00)
Language:

Cosmos 1898 Rocket - Orbit

View from above orbital plane
View from above orbital plane
View from above satellite
View from above satellite

Ground track
Ground track

The orbit data is extracted from the following two-line orbital elements,

1 18586U 87098B   21335.02008929  .00000051  00000-0  25985-4 0  9993
2 18586  74.0045 177.3853 0021579 211.7420 148.2433 14.36981105781161
Epoch (UTC): 01 December 2021 00:28:55
Eccentricity: 0.0021579
inclination: 74.0045°
perigee height: 753 km
apogee height: 784 km
right ascension of ascending node: 177.3853°
argument of perigee: 211.7420°
revolutions per day: 14.36981105
mean anomaly at epoch: 148.2433°
orbit number at epoch: 78116

The dashed part of the orbit path shows where the satellite is in the earth's shadow,  

DLR